MIRATA

Last updated on Thu Nov 21 2024 00:03:40 GMT+0000 (Coordinated Universal Time)

1 43015U 17073C 24325.11294722 .00049152 00000+0 16744-2 0 9999 2 43015 97.5673 209.1264 0138794 83.1214 278.5789 15.21417404379911
UTC large
Height (km)
Speed (km/s)
/
Latitude / Longitude
Inclination (degrees)
Orbital Period (minutes)
Azimuth
Elevation
Range (km)
Doppler Factor

Next 0 passes for location: London (51.5072 / 0.1276)

Sorry there are no passes over London.